This is the latest recevied weather packets stored in our database for station/object KR4DFQ. If no packets are shown the sender has not sent any weather packets the latest 10 day(s).
| Time | Temp. | Humidity | Pressure | Rain* | Wind** | Luminosity | Snow |
|---|---|---|---|---|---|---|---|
| 1787676195 | 35.56° C | 52% | 1018.3 hPa | 0 mm | - | 859 W/m² | - |
| 1787675894 | 35° C | 51% | 1018.2 hPa | 0 mm | - | 992 W/m² | - |
| 1787675591 | 34.44° C | 53% | 1018.2 hPa | 0 mm | - | 1017 W/m² | - |
| 1787675289 | 35° C | 54% | 1018.3 hPa | 0 mm | - | 1014 W/m² | - |
| 1787674983 | 33.89° C | 56% | 1018.4 hPa | 0 mm | - | 1094 W/m² | - |
| 1787674679 | 34.44° C | 54% | 1018.3 hPa | 0 mm | - | 732 W/m² | - |
| 1787674375 | 35° C | 52% | 1018.2 hPa | 0 mm | - | 993 W/m² | - |
| 1787674069 | 35° C | 56% | 1018 hPa | 0 mm | - | 947 W/m² | - |
| 1787673770 | 35° C | 55% | 1018 hPa | 0 mm | - | 931 W/m² | - |
| 1787673469 | 34.44° C | 57% | 1018.1 hPa | 0 mm | - | 901 W/m² | - |
| 1787673164 | 34.44° C | 57% | 1018.5 hPa | 0 mm | - | 937 W/m² | - |
| 1787672863 | 34.44° C | 55% | 1018.3 hPa | 0 mm | - | 907 W/m² | - |
| 1787672559 | 34.44° C | 56% | 1018.4 hPa | 0 mm | - | 883 W/m² | - |
| 1787672257 | 34.44° C | 57% | 1018.7 hPa | 0 mm | - | 362 W/m² | - |
| 1787671953 | 34.44° C | 56% | 1018.7 hPa | 0 mm | - | 868 W/m² | - |
| 1787671649 | 34.44° C | 56% | 1018.8 hPa | 0 mm | - | 824 W/m² | - |
| 1787671348 | 33.33° C | 58% | 1018.9 hPa | 0 mm | - | 795 W/m² | - |
| 1787671044 | 33.89° C | 60% | 1019.1 hPa | 0 mm | - | 746 W/m² | - |
| 1787670740 | 33.89° C | 60% | 1018.9 hPa | 0 mm | - | 732 W/m² | - |
| 1787670439 | 33.89° C | 57% | 1018.8 hPa | 0 mm | - | 800 W/m² | - |
| 1787670134 | 33.89° C | 58% | 1019.1 hPa | 0 mm | - | 791 W/m² | - |
| 1787669833 | 33.89° C | 57% | 1019.2 hPa | 0 mm | - | 792 W/m² | - |
| 1787669529 | 33.89° C | 60% | 1019 hPa | 0 mm | - | 740 W/m² | - |
| 1787669224 | 33.89° C | 60% | 1019.1 hPa | 0 mm | - | 739 W/m² | - |
| 1787668920 | 33.89° C | 60% | 1019.2 hPa | 0 mm | - | 691 W/m² | - |
* Rain latest hour (hover to see other rain measurements)
** Current wind speed in m/s (hover to see current wind gust speed)